FW3266 Weather Reports


Display with metric or nautical units.
time (UTC)temp
F
wind
direction
speed
MPH
gust
MPH
rain 1hr
in
rain 24hr
in
rain mn
in
humidity
%
barometer
mb
20260904081234 67 183 0.0 0.0 0.00 0.12 0.00 94 1010.9
20260904080508 67 183 0.0 0.0 0.00 0.12 0.00 94 1010.9
20260904080451 67 183 0.0 0.0 0.00 0.12 0.00 94 1010.9
20260904075505 67 183 0.0 0.0 0.00 0.12 0.00 94 1010.9
20260904075006 67 183 0.0 0.0 0.00 0.12 0.00 94 1011.0
20260904074506 67 183 0.0 0.0 0.00 0.12 0.00 94 1011.1
20260904073956 67 183 0.0 0.0 0.00 0.12 0.00 94 1011.1
20260904073456 67 183 0.0 0.0 0.00 0.12 0.00 94 1011.1
20260904072950 67 183 0.0 0.0 0.00 0.12 0.00 94 1011.2
20260904072448 67 183 0.0 0.0 0.00 0.12 0.00 94 1011.2
20260904071939 67 183 0.0 3.0 0.00 0.12 0.00 94 1011.2
20260904071438 67 183 0.0 3.0 0.00 0.12 0.00 94 1011.3
20260904071159 67 183 0.0 3.0 0.00 0.12 0.00 94 1011.4
20260904070436 67 183 1.0 3.0 0.00 0.12 0.00 94 1011.4
20260904065935 67 183 1.0 2.0 0.00 0.12 0.00 94 1011.5
20260904065432 67 183 1.0 2.0 0.00 0.12 0.00 94 1011.4
20260904065154 67 183 0.0 2.0 0.00 0.12 0.00 94 1011.4
20260904064703 67 183 1.0 2.0 0.00 0.12 0.00 94 1011.4
20260904063932 67 183 0.0 1.0 0.00 0.12 0.00 94 1011.5
20260904063430 67 183 0.0 1.0 0.00 0.12 0.00 94 1011.5
20260904062931 67 183 1.0 1.0 0.00 0.12 0.00 94 1011.4
20260904062429 67 183 0.0 3.0 0.00 0.12 0.00 94 1011.5
20260904061930 67 183 0.0 3.0 0.00 0.12 0.00 94 1011.5
20260904061427 67 183 1.0 4.0 0.00 0.12 0.00 94 1011.7
20260904061149 67 183 0.0 4.0 0.00 0.12 0.00 94 1011.6
20260904060427 67 183 2.0 4.0 0.00 0.12 0.00 94 1011.6
20260904055926 67 148 0.0 2.0 0.00 0.12 0.00 94 1011.7
20260904055424 67 96 1.0 3.0 0.00 0.12 0.00 94 1011.8
20260904054916 67 155 1.0 3.0 0.00 0.12 0.00 94 1011.9
20260904054414 67 79 1.0 3.0 0.00 0.12 0.00 94 1012.1
20260904053914 67 183 0.0 2.0 0.00 0.12 0.00 94 1012.0
20260904053641 67 183 0.0 2.0 0.00 0.12 0.00 94 1012.0
20260904053132 67 183 0.0 0.0 0.00 0.12 0.00 94 1012.1
20260904052405 67 183 0.0 0.0 0.00 0.12 0.00 94 1012.1
20260904051903 67 183 0.0 1.0 0.00 0.12 0.00 93 1012.1
20260904051404 67 183 0.0 1.0 0.00 0.12 0.00 93 1012.3
20260904050903 66 183 0.0 3.0 0.00 0.12 0.00 94 1012.4
20260904050400 66 183 1.0 3.0 0.00 0.12 0.00 94 1012.3
20260904045900 65 71 1.0 2.0 0.00 0.12 0.00 93 1012.3
20260904045359 65 71 0.0 0.0 0.00 0.12 0.00 93 1012.4
20260904044859 64 71 0.0 0.0 0.00 0.12 0.00 93 1012.4
20260904044344 64 71 0.0 0.0 0.00 0.12 0.00 93 1012.5
20260904044113 64 71 0.0 0.0 0.00 0.12 0.00 93 1012.5
20260904043822 64 71 0.0 0.0 0.00 0.12 0.00 93 1012.6
20260904042828 64 71 0.0 0.0 0.00 0.12 0.00 93 1012.6
20260904042548 64 71 0.0 0.0 0.00 0.12 0.00 93 1012.5
20260904041827 64 71 0.0 1.0 0.00 0.12 0.00 93 1012.6
20260904041318 64 71 0.0 1.0 0.00 0.12 0.00 93 1012.6
20260904040818 64 71 0.0 1.0 0.00 0.12 0.00 93 1012.6
20260904040810 64 71 0.0 1.0 0.00 0.12 0.00 93 1012.6
20260904035818 64 71 0.0 0.0 0.00 0.12 0.12 93 1012.7
20260904035305 64 71 0.0 0.0 0.00 0.12 0.12 93 1012.7
20260904035027 64 71 0.0 0.0 0.00 0.12 0.12 93 1012.7
20260904034301 65 71 0.0 0.0 0.00 0.12 0.12 93 1012.8
20260904033759 65 71 0.0 1.0 0.00 0.12 0.12 93 1012.8
20260904033252 65 71 0.0 1.0 0.00 0.12 0.12 93 1012.8
20260904032749 65 71 0.0 0.0 0.00 0.12 0.12 93 1012.7
20260904032519 65 71 0.0 0.0 0.00 0.12 0.12 93 1012.7
20260904031742 65 71 0.0 0.0 0.00 0.12 0.12 93 1012.8
20260904031233 65 71 0.0 0.0 0.00 0.12 0.12 93 1012.8
20260904030733 65 71 0.0 0.0 0.00 0.12 0.12 93 1012.8
20260904030232 65 71 0.0 0.0 0.00 0.12 0.12 93 1012.8
20260904025729 65 71 0.0 0.0 0.00 0.12 0.12 93 1012.9
20260904025229 65 71 0.0 0.0 0.00 0.12 0.12 93 1013.0
20260904024726 65 71 0.0 0.0 0.00 0.12 0.12 92 1013.1
20260904024225 66 71 0.0 0.0 0.00 0.12 0.12 92 1013.2
20260904023727 65 71 0.0 0.0 0.00 0.12 0.12 92 1013.1
20260904023224 65 71 0.0 0.0 0.00 0.12 0.12 92 1013.3
20260904022946 65 71 0.0 0.0 0.00 0.12 0.12 92 1013.2
20260904022224 65 71 0.0 0.0 0.00 0.12 0.12 92 1013.4
20260904021723 66 71 0.0 0.0 0.00 0.12 0.12 92 1013.4
20260904021216 66 71 0.0 0.0 0.00 0.12 0.12 92 1013.5
20260904020708 66 71 0.0 0.0 0.00 0.12 0.12 92 1013.4
20260904020208 65 71 0.0 0.0 0.00 0.12 0.12 92 1013.3
20260904015706 65 71 0.0 0.0 0.00 0.12 0.12 92 1013.3
20260904015428 65 71 0.0 0.0 0.00 0.12 0.12 92 1013.3
20260904014705 65 71 0.0 0.0 0.00 0.12 0.12 92 1013.4
20260904014204 65 71 0.0 0.0 0.00 0.12 0.12 92 1013.4
20260904013705 65 71 0.0 0.0 0.00 0.12 0.12 92 1013.5
20260904013157 65 71 0.0 0.0 0.00 0.12 0.12 92 1013.6
20260904012912 65 71 0.0 0.0 0.00 0.12 0.12 92 1013.6
20260904012148 65 71 0.0 0.0 0.00 0.12 0.12 92 1013.6
20260904011641 66 71 0.0 0.0 0.00 0.12 0.12 92 1013.7
20260904011135 66 71 0.0 0.0 0.00 0.12 0.12 91 1013.5
20260904010634 66 71 0.0 0.0 0.00 0.12 0.12 92 1013.6
20260904010127 66 71 0.0 0.0 0.00 0.12 0.12 91 1013.4
20260904005625 65 71 0.0 0.0 0.00 0.12 0.12 91 1013.2
20260904005125 66 71 0.0 0.0 0.00 0.12 0.12 91 1013.3
20260904004626 66 71 0.0 0.0 0.00 0.12 0.12 91 1013.3
20260904004124 66 71 0.0 0.0 0.00 0.12 0.12 91 1013.0
20260904003616 66 71 0.0 0.0 0.00 0.12 0.12 91 1013.0
20260904003344 66 71 0.0 0.0 0.00 0.12 0.12 91 1013.2
20260904002615 66 71 0.0 0.0 0.00 0.12 0.12 91 1013.1
20260904002115 66 71 0.0 0.0 0.00 0.12 0.12 91 1013.0
20260904001829 66 71 0.0 0.0 0.00 0.12 0.12 91 1013.0
20260904001104 67 71 0.0 0.0 0.00 0.12 0.12 90 1012.8
20260904000609 67 71 0.0 0.0 0.00 0.12 0.12 90 1012.9
20260904000104 67 71 0.0 0.0 0.00 0.12 0.12 90 1013.0
20260903235606 67 71 0.0 0.0 0.00 0.12 0.12 90 1012.8
20260903235103 67 71 0.0 0.0 0.00 0.12 0.12 90 1012.9
20260903234602 67 71 0.0 0.0 0.00 0.12 0.12 90 1012.9
20260903234102 67 71 0.0 0.0 0.00 0.12 0.12 90 1012.8
20260903233555 68 71 0.0 0.0 0.00 0.12 0.12 90 1012.9
20260903233054 68 71 0.0 0.0 0.00 0.12 0.12 89 1013.0
20260903232552 68 71 0.0 0.0 0.00 0.12 0.12 89 1013.0
20260903232540 68 71 0.0 0.0 0.00 0.12 0.12 89 1012.9
20260903231552 68 71 0.0 0.0 0.00 0.12 0.12 89 1012.7
20260903231541 69 71 0.0 0.0 0.00 0.12 0.12 89 1012.7
20260903230550 69 71 0.0 0.0 0.00 0.12 0.12 88 1012.8
20260903230046 69 71 0.0 0.0 0.00 0.12 0.12 88 1012.8
20260903225547 69 71 0.0 0.0 0.00 0.12 0.12 88 1012.8
20260903225024 69 71 0.0 0.0 0.00 0.12 0.12 88 1012.9
20260903224526 69 71 0.0 0.0 0.00 0.12 0.12 88 1013.0
20260903224021 69 71 0.0 0.0 0.00 0.12 0.12 88 1013.1
20260903223742 69 71 0.0 0.0 0.00 0.12 0.12 88 1013.3
20260903223021 69 71 0.0 1.0 0.00 0.12 0.12 88 1013.2
20260903222521 69 71 0.0 1.0 0.00 0.12 0.12 88 1013.2
20260903222021 70 71 0.0 0.0 0.00 0.12 0.12 87 1013.2
20260903221521 70 71 0.0 3.0 0.00 0.12 0.12 87 1013.3
20260903221226 70 71 1.0 3.0 0.00 0.12 0.12 87 1013.4
20260903220510 70 71 0.0 2.0 0.00 0.12 0.12 87 1013.4
20260903220009 70 71 0.0 3.0 0.00 0.12 0.12 87 1013.2
20260903215733 70 71 2.0 3.0 0.00 0.12 0.12 87 1013.1
20260903214958 70 130 0.0 0.0 0.00 0.12 0.12 87 1013.2
20260903214458 70 130 0.0 1.0 0.00 0.12 0.12 87 1013.0
20260903214000 70 130 0.0 1.0 0.00 0.12 0.12 87 1013.0
20260903213459 70 130 0.0 2.0 0.00 0.12 0.12 87 1013.0
20260903213436 70 130 1.0 2.0 0.00 0.12 0.12 87 1013.0
20260903212452 70 130 1.0 2.0 0.00 0.12 0.12 88 1013.0
20260903211948 70 112 0.0 0.0 0.00 0.12 0.12 88 1013.0
20260903211427 70 112 0.0 0.0 0.00 0.12 0.12 88 1013.0
20260903210928 70 112 0.0 0.0 0.00 0.12 0.12 88 1013.0
20260903210425 69 112 0.0 0.0 0.00 0.12 0.12 88 1013.1
20260903205924 69 112 0.0 0.0 0.00 0.12 0.12 88 1013.3
20260903205416 69 112 0.0 0.0 0.00 0.12 0.12 88 1013.3
20260903205137 69 112 0.0 0.0 0.00 0.12 0.12 88 1013.3
20260903204414 70 112 0.0 0.0 0.00 0.12 0.12 88 1013.3
20260903203914 70 112 0.0 2.0 0.00 0.12 0.12 88 1013.2
20260903203414 70 112 0.0 2.0 0.00 0.12 0.12 88 1013.2
20260903203135 70 112 0.0 2.0 0.00 0.12 0.12 88 1013.2
20260903202631 70 112 0.0 1.0 0.00 0.12 0.12 88 1013.2
20260903201910 70 112 0.0 2.0 0.00 0.12 0.12 88 1013.2
20260903201410 70 112 0.0 3.0 0.00 0.12 0.12 88 1013.2
20260903200902 70 112 2.0 3.0 0.00 0.12 0.12 88 1013.3
20260903200402 70 81 0.0 3.0 0.00 0.12 0.12 88 1013.4
20260903195854 70 53 2.0 3.0 0.00 0.12 0.12 88 1013.4
20260903195353 70 53 0.0 5.0 0.00 0.12 0.12 88 1013.4
20260903194854 70 52 3.0 5.0 0.00 0.12 0.12 89 1013.5
20260903194351 70 71 1.0 5.0 0.00 0.12 0.12 89 1013.6
20260903193850 70 56 0.0 5.0 0.00 0.12 0.12 89 1013.5
20260903193349 70 51 1.0 3.0 0.00 0.12 0.12 89 1013.7
20260903192849 69 58 0.0 3.0 0.00 0.12 0.12 90 1013.8
20260903192349 69 58 1.0 4.0 0.00 0.12 0.12 90 1013.8
20260903191846 69 59 2.0 4.0 0.00 0.12 0.12 90 1013.8
20260903191344 69 57 0.0 4.0 0.00 0.12 0.12 90 1013.8
20260903190845 69 57 2.0 4.0 0.00 0.12 0.12 90 1013.9
20260903190344 69 57 1.0 3.0 0.00 0.12 0.12 90 1013.9
20260903185845 69 57 0.0 5.0 0.00 0.12 0.12 90 1014.0
20260903185343 69 57 2.0 5.0 0.00 0.12 0.12 90 1014.1
20260903184841 69 86 1.0 3.0 0.00 0.12 0.12 90 1014.1
20260903184333 69 67 1.0 5.0 0.00 0.12 0.12 90 1014.2
20260903183833 69 67 2.0 5.0 0.00 0.12 0.12 90 1014.2
20260903183332 69 39 2.0 4.0 0.00 0.12 0.12 90 1014.3
20260903183059 69 44 2.0 5.0 0.00 0.12 0.12 90 1014.3
20260903182332 69 58 2.0 5.0 0.00 0.12 0.12 89 1014.5
20260903181831 69 53 3.0 5.0 0.00 0.12 0.12 89 1014.4
20260903181329 69 50 2.0 4.0 0.00 0.12 0.12 90 1014.5
20260903180831 69 62 2.0 5.0 0.00 0.12 0.12 89 1014.4
20260903180329 69 64 1.0 5.0 0.00 0.12 0.12 89 1014.3
20260903175830 69 52 1.0 5.0 0.00 0.12 0.12 89 1014.4
20260903175327 69 63 1.0 4.0 0.00 0.12 0.12 89 1014.4
20260903174828 69 57 2.0 5.0 0.00 0.12 0.12 89 1014.5
20260903174328 69 59 2.0 6.0 0.00 0.12 0.12 89 1014.5
20260903173827 69 53 3.0 7.0 0.00 0.12 0.12 89 1014.5
20260903173324 69 58 3.0 7.0 0.00 0.12 0.12 89 1014.6
20260903172824 69 19 3.0 7.0 0.00 0.12 0.12 89 1014.6
20260903172325 70 37 3.0 7.0 0.00 0.12 0.12 90 1014.6
20260903171826 69 70 4.0 7.0 0.00 0.12 0.12 90 1014.4
20260903171324 70 58 4.0 7.0 0.00 0.12 0.12 90 1014.2
20260903170823 70 77 2.0 6.0 0.00 0.12 0.12 90 1014.3
20260903170320 69 53 2.0 6.0 0.00 0.12 0.12 90 1014.3
20260903165819 69 56 3.0 6.0 0.00 0.12 0.12 91 1014.3
20260903165311 69 63 2.0 6.0 0.00 0.12 0.12 91 1014.2
20260903164810 69 96 2.0 6.0 0.00 0.12 0.12 91 1014.2
20260903164529 70 65 2.0 6.0 0.00 0.12 0.12 92 1014.1
20260903163810 69 72 3.0 6.0 0.00 0.12 0.12 92 1014.0
20260903163309 69 41 3.0 7.0 0.00 0.12 0.12 92 1014.0
20260903163028 69 1 5.0 7.0 0.00 0.12 0.12 92 1014.1
20260903162306 69 76 4.0 7.0 0.00 0.12 0.12 92 1014.2
20260903161806 68 70 4.0 7.0 0.00 0.12 0.12 92 1014.2
20260903161307 69 344 3.0 6.0 0.00 0.12 0.12 93 1014.3
20260903161018 69 72 4.0 6.0 0.00 0.12 0.12 93 1014.3
20260903160257 69 57 1.0 6.0 0.01 0.12 0.12 93 1014.5
20260903155750 69 73 2.0 4.0 0.01 0.12 0.12 93 1014.7
20260903155249 69 57 2.0 4.0 0.01 0.12 0.12 93 1014.6
20260903155006 68 57 2.0 4.0 0.01 0.12 0.12 93 1014.7
20260903154240 68 57 1.0 6.0 0.01 0.12 0.12 93 1014.8
20260903153738 68 64 2.0 7.0 0.01 0.12 0.12 93 1014.8
20260903153240 68 65 3.0 7.0 0.01 0.12 0.12 93 1014.8
20260903152736 68 53 3.0 4.0 0.01 0.12 0.12 93 1014.9
20260903152237 67 53 0.0 3.0 0.01 0.12 0.12 93 1014.9
20260903151736 67 53 2.0 4.0 0.01 0.12 0.12 93 1015.0
20260903151454 67 55 2.0 4.0 0.01 0.12 0.12 93 1015.1
20260903150733 67 51 1.0 4.0 0.01 0.12 0.12 93 1015.1
20260903150234 67 50 1.0 5.0 0.00 0.11 0.11 93 1015.1
20260903145725 67 49 3.0 5.0 0.00 0.11 0.11 93 1015.1
20260903145225 67 53 1.0 3.0 0.00 0.11 0.11 94 1015.2
20260903144722 67 53 2.0 3.0 0.00 0.11 0.11 93 1015.4
20260903144221 67 53 1.0 3.0 0.00 0.11 0.11 93 1015.5
20260903143721 67 53 0.0 4.0 0.00 0.11 0.11 93 1015.4
20260903143219 67 53 1.0 4.0 0.00 0.11 0.11 93 1015.5
20260903142720 67 53 1.0 3.0 0.00 0.11 0.11 93 1015.6
20260903142219 68 53 1.0 4.0 0.00 0.11 0.11 93 1015.7
20260903141716 69 53 2.0 4.0 0.01 0.11 0.11 93 1015.7
20260903141217 70 264 0.0 2.0 0.01 0.11 0.11 94 1015.9
20260903140714 70 264 0.0 2.0 0.01 0.11 0.11 94 1016.0
20260903140441 70 264 0.0 2.0 0.02 0.11 0.11 94 1015.9
20260903135708 69 264 0.0 1.0 0.02 0.11 0.11 94 1015.9
20260903135204 69 264 0.0 1.0 0.02 0.11 0.11 94 1015.9
20260903134705 69 264 0.0 1.0 0.02 0.11 0.11 94 1015.7
20260903134417 69 264 0.0 1.0 0.03 0.11 0.11 94 1015.8
20260903133651 69 264 0.0 2.0 0.03 0.11 0.11 94 1015.7
20260903133144 69 264 1.0 2.0 0.03 0.11 0.11 94 1015.7
20260903132644 69 255 1.0 4.0 0.03 0.11 0.11 94 1015.7
20260903132141 68 182 2.0 4.0 0.03 0.11 0.11 94 1015.7
20260903131642 68 325 0.0 2.0 0.02 0.10 0.10 94 1015.7
20260903131142 68 325 0.0 2.0 0.02 0.10 0.10 94 1015.8
20260903130642 68 325 0.0 5.0 0.02 0.09 0.10 94 1015.9
20260903130141 68 325 1.0 5.0 0.02 0.09 0.09 94 1015.8
20260903125640 68 192 1.0 3.0 0.02 0.09 0.09 93 1015.8
20260903125139 68 8 0.0 3.0 0.02 0.09 0.09 94 1015.8
20260903124639 68 8 0.0 3.0 0.01 0.08 0.09 93 1015.9
20260903124138 68 145 0.0 4.0 0.02 0.08 0.08 93 1015.8
20260903123637 68 145 1.0 5.0 0.02 0.08 0.08 93 1015.8
20260903123135 68 186 2.0 5.0 0.02 0.08 0.08 93 1015.9
20260903122635 67 192 2.0 7.0 0.02 0.08 0.08 93 1015.9
20260903122133 67 191 2.0 7.0 0.02 0.08 0.08 93 1016.0
20260903121633 67 187 2.0 8.0 0.02 0.08 0.08 93 1016.0
20260903121130 67 184 3.0 8.0 0.02 0.08 0.08 93 1016.1
20260903120849 67 188 2.0 7.0 0.01 0.07 0.07 93 1016.3
20260903120129 67 157 1.0 7.0 0.01 0.07 0.07 93 1016.3
20260903115849 67 198 3.0 6.0 0.01 0.07 0.07 93 1016.1
20260903115126 66 203 1.0 7.0 0.02 0.07 0.07 93 1016.2
20260903114627 66 194 3.0 7.0 0.02 0.07 0.07 93 1016.3
20260903114125 66 194 1.0 6.0 0.01 0.06 0.06 93 1016.3
20260903113625 66 201 1.0 6.0 0.02 0.06 0.06 93 1016.4
20260903113122 66 186 3.0 8.0 0.02 0.06 0.06 93 1016.4
20260903112621 66 203 3.0 8.0 0.02 0.06 0.06 93 1016.4
20260903112120 66 194 3.0 8.0 0.02 0.06 0.06 93 1016.4
20260903111621 66 197 2.0 7.0 0.02 0.06 0.06 93 1016.6
20260903111121 66 198 3.0 7.0 0.02 0.06 0.06 93 1016.7
20260903110620 66 198 2.0 8.0 0.02 0.06 0.06 93 1016.6
20260903110344 66 185 2.0 8.0 0.02 0.06 0.06 93 1016.6
20260903105619 65 161 3.0 8.0 0.02 0.06 0.06 92 1016.4
20260903105118 65 198 3.0 8.0 0.01 0.05 0.06 92 1016.4
20260903104616 65 165 2.0 9.0 0.01 0.05 0.05 92 1016.3
20260903104114 65 180 2.0 9.0 0.01 0.05 0.05 92 1016.3
20260903103615 65 184 3.0 8.0 0.00 0.04 0.05 92 1016.3
20260903103115 65 188 1.0 8.0 0.01 0.04 0.04 92 1016.3
20260903102615 65 198 3.0 10.0 0.01 0.04 0.04 92 1016.3
20260903102107 65 184 4.0 10.0 0.01 0.04 0.04 92 1016.3
20260903101606 65 205 3.0 6.0 0.01 0.04 0.04 92 1016.1
20260903101105 65 198 2.0 6.0 0.02 0.04 0.04 92 1016.3
20260903100606 65 184 2.0 6.0 0.03 0.04 0.04 92 1016.5
20260903100105 65 206 3.0 6.0 0.03 0.04 0.04 92 1016.5
20260903095832 65 181 3.0 5.0 0.04 0.04 0.04 92 1016.6
20260903095104 65 207 1.0 5.0 0.04 0.04 0.04 92 1016.6
20260903094604 65 205 3.0 7.0 0.04 0.04 0.04 91 1016.7
20260903094105 65 174 2.0 7.0 0.04 0.04 0.04 91 1016.7
20260903093601 65 166 1.0 7.0 0.04 0.04 0.04 91 1017.0
20260903093102 65 207 3.0 8.0 0.03 0.03 0.04 91 1017.0
20260903092601 65 225 3.0 8.0 0.03 0.03 0.03 91 1016.8
20260903092101 65 198 4.0 7.0 0.03 0.03 0.03 91 1016.8
20260903091559 65 207 3.0 7.0 0.03 0.03 0.03 91 1016.9
20260903091058 66 198 4.0 8.0 0.02 0.02 0.02 90 1017.0
20260903090557 66 216 3.0 8.0 0.01 0.01 0.02 90 1017.0
20260903090055 66 195 2.0 6.0 0.01 0.01 0.01 90 1017.1
20260903085556 66 202 3.0 6.0 0.00 0.00 0.00 89 1017.2
20260903085053 66 193 2.0 6.0 0.00 0.00 0.00 89 1017.4
20260903084812 66 200 2.0 6.0 0.00 0.00 0.00 89 1017.5
20260903084047 66 182 2.0 7.0 0.00 0.00 0.00 89 1017.6
20260903083545 66 211 3.0 7.0 0.00 0.00 0.00 89 1017.6
20260903083044 66 167 1.0 6.0 0.00 0.00 0.00 89 1017.7
20260903082543 66 187 2.0 5.0 0.00 0.00 0.00 89 1017.8
20260903082306 66 162 3.0 8.0 0.00 0.00 0.00 89 1017.7
20260903081542 66 215 2.0 8.0 0.00 0.00 0.00 89 1017.7